Modesto, Modesto City-County-Sham Field, United States
Lat: 37.62N, Lon: 120.95W
Local Info
Past Weather Observations for Yesterday

NOTE: This archive is for the closest National Weather Service station to Modesto, Modesto City-County-Sham Field. Information may differ from the station used for current weather conditions.

Click here for Long-term Archive

Time Weather Temperature Dewpoint Humidity Pressure Winds Precip Visibility
23:53
Clear
Fog And Mist
48°F / 9°C 46°F / 8°C 94% 30.21 in
(1023 mb)
E 4.6 mph
(E 7 kph)
- 2 1/2SM
23:41
Clear
Fog And Mist
48°F / 9°C 46°F / 8°C 94% 30.21 in
(1023 mb)
E 4.6 mph
(E 7 kph)
- 2 1/2SM
22:53
Clear
Fog And Mist
50°F / 10°C 46°F / 8°C 88% 30.21 in
(1023 mb)
SE 4.6 mph
(SE 7 kph)
- 1 3/4SM
22:33
Clear
Fog And Mist
48°F / 9°C 46°F / 8°C 94% 30.21 in
(1023 mb)
SE 4.6 mph
(SE 7 kph)
- 1 3/4SM
21:53
Clear
Fog And Mist
52°F / 11°C 50°F / 10°C 94% 30.21 in
(1023 mb)
SE 3.5 mph
(SE 6 kph)
- 2 1/2SM
21:14
Clear
Fog And Mist
52°F / 11°C 48°F / 9°C 88% 30.21 in
(1023 mb)
Calm - 2 1/2SM
20:53
Clear
Fog And Mist
54°F / 12°C 50°F / 10°C 88% 30.21 in
(1023 mb)
Calm - 3SM
19:53
Clear
Hazy
55°F / 13°C 50°F / 10°C 82% 30.21 in
(1023 mb)
E 3.5 mph
(E 6 kph)
- 4SM
18:53
Clear
Hazy
57°F / 14°C 52°F / 11°C 82% 30.18 in
(1022 mb)
SE 3.5 mph
(SE 6 kph)
- 6SM
17:53
Clear
64°F / 18°C 54°F / 12°C 68% 30.18 in
(1022 mb)
Calm - 7SM
16:53
Clear
Hazy
70°F / 21°C 54°F / 12°C 57% 30.18 in
(1022 mb)
S 6.9 mph
(S 11 kph)
- 6SM
15:53
Clear
72°F / 22°C 48°F / 9°C 44% 30.18 in
(1022 mb)
SSE 4.6 mph
(SSE 7 kph)
- 8SM
14:53
Clear
72°F / 22°C 50°F / 10°C 47% 30.18 in
(1022 mb)
Calm - 8SM
13:53
Clear
70°F / 21°C 50°F / 10°C 50% 30.21 in
(1023 mb)
Calm - 9SM
12:53
Clear
70°F / 21°C 50°F / 10°C 50% 30.21 in
(1023 mb)
Calm - 8SM
11:53
Clear
Hazy
66°F / 19°C 50°F / 10°C 56% 30.27 in
(1025 mb)
Calm - 6SM
10:53
Clear
Hazy
63°F / 17°C 52°F / 11°C 68% 30.27 in
(1025 mb)
Calm - 6SM
09:53
Clear
Hazy
57°F / 14°C 50°F / 10°C 77% 30.27 in
(1025 mb)
Calm - 5SM
08:53
Clear
Fog And Mist
50°F / 10°C 46°F / 8°C 88% 30.27 in
(1025 mb)
SE 3.5 mph
(SE 6 kph)
- 4SM
07:53
Clear
Fog And Mist
43°F / 6°C 41°F / 5°C 93% 30.27 in
(1025 mb)
Calm - 3SM
06:53
Partly Cloudy
Fog And Mist
43°F / 6°C 39°F / 4°C 87% 30.27 in
(1025 mb)
Calm - 2SM
06:49
Partly Cloudy
Fog And Mist
41°F / 5°C 39°F / 4°C 93% 30.27 in
(1025 mb)
Calm - 2SM
06:29
Obscured
Fog
43°F / 6°C 39°F / 4°C 87% 30.27 in
(1025 mb)
Calm - 1/2SM
06:25
Clear
Fog And Mist
43°F / 6°C 39°F / 4°C 87% 30.27 in
(1025 mb)
Calm - 1 3/4SM
06:07
Clear
Fog And Mist
43°F / 6°C 39°F / 4°C 87% 30.27 in
(1025 mb)
Calm - 3SM
05:53
Clear
Fog And Mist
43°F / 6°C 39°F / 4°C 87% 30.27 in
(1025 mb)
Calm - 1 3/4SM
05:40
Clear
Fog And Mist
43°F / 6°C 41°F / 5°C 93% 30.27 in
(1025 mb)
Calm - 2 1/2SM
04:53
Clear
Fog And Mist
45°F / 7°C 41°F / 5°C 87% 30.24 in
(1024 mb)
Calm - 4SM
03:53
Clear
Fog And Mist
45°F / 7°C 41°F / 5°C 87% 30.24 in
(1024 mb)
Calm - 5SM
03:28
Clear
Fog And Mist
45°F / 7°C 41°F / 5°C 87% 30.24 in
(1024 mb)
Calm - 5SM
03:07
Clear
Fog And Mist
43°F / 6°C 41°F / 5°C 93% 30.24 in
(1024 mb)
Calm - 2 1/2SM
02:53
Clear
Fog And Mist
45°F / 7°C 41°F / 5°C 87% 30.24 in
(1024 mb)
SE 3.5 mph
(SE 6 kph)
- 3SM
02:49
Clear
Fog And Mist
43°F / 6°C 41°F / 5°C 93% 30.24 in
(1024 mb)
SE 3.5 mph
(SE 6 kph)
- 3SM
02:40
Clear
Fog And Mist
43°F / 6°C 41°F / 5°C 93% 30.24 in
(1024 mb)
SE 4.6 mph
(SE 7 kph)
- 2 1/2SM
01:53
Clear
Fog And Mist
45°F / 7°C 41°F / 5°C 87% 30.24 in
(1024 mb)
Calm - 3SM
01:41
Clear
Fog And Mist
45°F / 7°C 43°F / 6°C 93% 30.24 in
(1024 mb)
Calm - 2 1/2SM
00:53
Clear
Fog And Mist
46°F / 8°C 45°F / 7°C 93% 30.24 in
(1024 mb)
Calm - 5SM
Time Weather Temperature Dewpoint Humidity Pressure Winds Precip Visibility


Weather for websites

WeatherForYou.com, LLC is not responsible for any damages or problems caused by this service. Current weather conditions are obtained from the closest station including government and personal stations which may have varying degrees of accuracy. Weather forecasts are derived from the NOAA NDFD. Like all things, this site belongs to Jesus Christ... He just trusts us to maintain it. If you have any questions or comments email webmaster@weatherforyou.com

Copyright © 2016, WeatherForYou.com LLC. All rights reserved.